Location: Arroyo de Valdeoliva
(40.1604°N, 4.9878°W)
Time: 18:09:00
(UTC+00:00)

Meteor 1-5 Rocket - Pass Details

Date: 11 December 2025
Orbit: 788 x 913 km, 81.2° (Epoch: 15 January)

Event Time Altitude Azimuth Distance (km) Brightness Sun altitude
Rises 18:16:32 0° 351° (N) 3,307 7.2 -15.2°
Reaches altitude 10° 18:18:54 10° 352° (N) 2,383 6.5 -15.6°
Maximum altitude 18:24:17 82° 80° (E) 828 4.0 -16.6°
Drops below altitude 10° 18:29:48 10° 169° (S) 2,437 6.7 -17.6°
Sets 18:32:14 0° 170° (S) 3,386 7.4 -18.1°
